Location: Home
(42.5358°N, 72.7383°W)
Time: 12:25:51
(UTC-05:00)

Tiros 1 - Pass Details

Date: 03 December 2021
Orbit: 629 x 664 km, 48.4° (Epoch: 26 January)

Event Time Altitude Azimuth Distance (km) Brightness Sun altitude
Rises 18:11:58 0° 227° (SW) 2,908 11.5 -20.3°
Reaches altitude 10° 18:14:18 10° 223° (SW) 2,007 10.4 -20.8°
Maximum altitude 18:18:48 54° 146° (SE) 770 7.3 -21.6°
Enters shadow 18:19:15 52° 122° (ESE) 793 7.3 -21.7°
Drops below altitude 10° 18:23:22 10° 69° (ENE) 2,035 - -22.4°
Sets 18:25:45 0° 65° (ENE) 2,953 - -22.8°
